Tracking 23885 objects as of 28-Nov-2021
HD Live streaming from Space Station
objects crossing your sky now

SPACEBEE-96

Track SPACEBEE-96 now!
10-day predictions


NORAD ID: 48934
Int'l Code: 2021-059BH
Perigee: 513.5 km
Apogee: 538.8 km
Inclination: 97.5 °
Period: 95.0 minutes
Semi major axis: 6897 km
RCS: Unknown
Launch date: June 30, 2021
Source: United States (US)
Launch site: AIR FORCE EASTERN TEST RANGE (AFETR)
aabbcc
Your satellite tracking list
Your tracking list is empty




NASA's NSSDC Master Catalog

Two Line Element Set (TLE):
1 48934U 21059BH  21331.82078134  .00006930  00000-0  36639-3 0  9996
2 48934  97.5257  98.8395 0018329  81.4317 278.8991 15.15645272 23461
Source of the keplerian elements: AFSPC